Location: Waldport
(44.4270°N, 124.0680°W)
Time: 01:56:10
(UTC-07:00)

ISS - Pass Details

Date: 28 February 2019
Orbit: 406 x 411 km, 51.6° (Epoch: 20 March)

Event Time Altitude Azimuth Distance (km) Brightness Sun altitude
Exits shadow 05:45:59 25° 272° (W) 860 -2.8 -13.2°
Maximum altitude 05:47:34 49° 335° (NNW) 532 -3.4 -12.9°
Drops below altitude 10° 05:50:47 10° 53° (NE) 1,470 -0.2 -12.3°
Sets 05:52:55 0° 58° (ENE) 2,333 1.1 -12.0°
